RH
25 37 36 20 20 21 22 22 24 20 32 30 27 20 16 14 14 15 14 14 14 14 14 13 12 11 11 13 16 34 49 45 40 60 54 96 72 67 55 59 86 99 79 73
20 51 34 17 12 14 19 26 27 39 35 36 38 44 30 16 16 14 14 15 16 16 16 16 16 15 14 14 16 24 52 56 48 59 62 95 96 67 63 66 76 74 80 84
19 24 33 20 16 12 17 23 42 43 44 70 62 61 38 22 15 14 15 15 15 16 17 17 18 19 21 20 20 18 29 61 58 58 88 99 100 98 96 93 85 92 92 88
15 12 30 22 15 12 21 17 34 40 79 85 33 62 30 22 20 17 15 16 16 17 25 25 28 28 29 28 24 28 24 37 64 60 79 98 93 94 93 96 92 89 89 89
18 18 30 28 12 10 17 18 31 31 55 66 50 75 40 21 19 18 16 20 29 31 35 37 37 37 37 37 33 28 30 31 52 60 69 81 94 96 94 96 92 93 83 79
15 16 49 28 16 11 15 40 42 43 48 92 59 53 32 24 22 19 22 28 32 34 39 42 44 46 47 48 46 41 33 34 43 52 72 80 88 91 91 93 93 89 80 79
25 30 36 19 21 19 26 44 56 71 88 66 28 29 30 23 18 26 30 29 37 42 46 48 52 56 62 63 55 54 44 41 48 56 76 81 92 85 85 86 84 76 65 75
31 94 68 31 18 26 30 36 58 50 50 39 22 63 50 30 28 29 33 45 45 43 51 56 64 73 83 86 82 71 54 48 56 69 85 84 94 83 82 79 79 80 64 77
92 98 39 23 19 26 28 36 34 99 67 89 51 71 45 48 32 35 39 47 49 51 59 64 75 90 99 97 81 74 52 60 65 80 87 93 87 83 82 80 89 82 81 80
66 91 34 32 26 27 32 30 72 93 96 96 46 52 64 60 41 42 50 52 60 63 66 72 86 99 100 100 98 60 53 72 72 80 90 88 92 87 86 83 84 86 87 87
52 60 41 46 85 47 42 69 70 67 56 77 69 98 78 67 61 57 59 65 68 69 72 81 96 99 100 100 100 93 84 83 86 85 82 86 100 90 86 85 86 89 88 88
28 50 50 37 57 40 39 52 50 86 42 66 94 100 68 62 54 63 68 74 79 84 89 95 100 97 98 100 100 99 99 100 90 85 85 98 100 94 89 95 92 91 88 90
60 48 89 53 40 66 51 47 38 47 77 54 71 100 59 66 74 77 82 86 86 91 98 100 100 100 96 99 100 100 99 99 100 96 95 96 100 95 95 98 93 94 94 91
62 62 77 63 46 69 85 81 65 49 83 56 68 81 71 75 80 81 86 91 92 96 100 100 99 100 100 97 99 100 100 100 98 98 100 98 99 98 94 94 95 96 96 96
74 100 78 68 51 45 72 79 67 42 37 90 55 79 80 82 82 92 100 100 97 98 100 100 99 100 100 97 95 99 100 100 100 100 99 100 100 100 99 95 92 90 90 96
71 100 92 91 44 59 55 34 34 29 35 39 69 97 75 82 97 98 100 100 100 100 100 100 100 100 99 100 96 98 99 100 100 100 99 100 100 100 97 94 100 100 100 100
72 58 74 48 29 35 53 33 38 45 45 56 86 85 74 94 94 98 100 100 100 100 100 100 100 100 100 99 100 97 98 100 100 100 100 100 100 100 100 100 100 94 99 98
62 50 46 44 39 82 49 39 52 56 57 47 47 71 84 96 99 98 98 98 99 100 98 96 98 99 100 100 98 100 98 99 100 99 100 100 100 100 100 100 100 100 97 98
36 51 53 60 52 56 53 57 66 84 94 64 59 67 84 96 99 99 98 99 99 95 87 90 98 100 100 100 99 100 100 98 100 100 99 100 100 99 99 98 100 100 100 100
32 44 58 48 47 82 83 61 53 47 98 81 70 71 83 88 99 94 98 97 98 92 80 85 93 100 100 100 100 99 99 99 99 98 100 100 100 99 95 96 99 100 100 98
60 62 67 56 55 81 76 61 56 68 99 92 85 85 88 92 97 98 98 97 97 96 75 82 91 100 100 100 100 99 98 97 97 100 99 99 100 99 100 97 98 100 99 99
67 81 75 74 73 89 80 60 81 98 99 99 99 100 99 97 97 98 96 96 94 94 72 77 88 97 100 100 100 100 98 100 98 99 98 100 100 99 99 97 97 99 98 100
85 71 73 84 93 94 89 94 97 99 100 98 98 95 99 99 96 91 86 80 77 76 76 80 85 95 100 100 100 100 100 98 100 98 97 97 98 99 96 98 96 99 99 95
67 52 86 89 86 85 90 94 98 99 98 94 88 86 90 92 90 83 78 73 72 75 80 85 90 97 100 100 100 99 100 100 95 94 92 95 93 95 97 98 98 97 96 97
62 58 73 88 81 83 91 97 96 92 86 83 82 78 77 76 75 76 75 76 79 81 86 95 100 100 100 100 100 100 98 100 100 100 100 95 89 90 91 91 91 89 92 96
72 83 82 89 98 92 99 99 100 87 78 73 73 72 73 73 76 79 84 86 87 92 96 100 100 100 100 98 94 98 100 100 100 100 100 100 100 98 90 90 89 94 93 88
Wind_Speed
25 19 24 32 26 27 26 27 26 20 12 15 14 28 25 25 25 21 17 22 18 20 21 20 21 28 28 25 25 20 29 31 32 28 36 34 35 32 27 25 22 25 22 19
22 22 26 28 28 29 30 26 24 16 19 17 11 20 25 18 21 23 19 16 22 13 11 14 18 21 22 22 28 21 22 31 29 33 30 36 33 32 28 25 24 24 20 18
27 24 27 25 29 29 27 28 19 17 9 11 9 15 27 22 17 21 28 27 25 18 20 23 16 11 10 16 21 31 30 28 30 36 31 31 27 26 26 24 22 23 23 23
27 27 27 26 28 29 24 26 15 17 5 3 4 6 16 18 15 18 16 14 15 13 0 3 7 12 15 19 19 18 31 27 33 37 36 32 30 32 31 28 24 24 25 27
27 25 20 22 24 27 21 17 19 13 9 7 16 4 10 19 23 18 17 11 13 7 6 6 9 12 16 17 20 23 25 30 33 40 39 30 30 27 24 23 19 23 26 24
27 24 18 28 24 24 10 12 3 9 7 6 18 15 11 9 10 13 13 13 10 9 7 8 11 15 16 19 19 22 24 32 34 41 38 31 33 26 23 21 25 29 23 23
15 21 22 17 19 12 10 13 5 5 7 8 14 14 12 5 9 16 13 9 19 18 15 13 16 20 24 22 25 19 21 31 33 39 36 33 34 29 24 26 29 27 24 22
15 6 19 14 15 12 17 15 6 7 9 11 16 9 9 4 14 16 18 22 17 15 16 16 17 19 22 22 23 26 17 30 34 37 34 33 32 31 26 29 25 26 19 20
3 5 12 14 8 11 17 13 8 3 7 2 8 8 13 18 11 18 19 18 17 17 20 21 20 21 21 21 23 26 25 23 35 35 30 32 30 30 29 24 24 23 20 21
6 2 5 8 7 9 10 13 3 3 2 0 9 13 8 8 11 17 16 18 22 23 22 20 21 24 22 21 20 21 24 30 33 33 24 37 31 30 27 24 27 22 17 21
7 10 10 9 2 13 12 5 4 5 8 0 3 4 4 3 11 16 17 25 21 20 19 20 22 26 22 19 17 10 10 22 22 21 21 36 29 30 26 26 22 20 16 18
10 3 2 12 19 15 7 7 13 4 1 5 3 5 8 13 15 19 19 20 20 19 21 22 23 27 24 20 16 11 5 11 15 15 27 34 22 28 26 22 22 20 18 16
10 3 1 4 3 8 6 11 12 8 5 2 1 3 11 18 18 21 18 18 17 19 21 24 30 35 30 23 19 13 5 9 16 16 22 31 23 24 24 20 19 20 20 18
9 4 6 4 3 10 1 4 2 2 3 5 6 6 12 16 14 14 16 15 16 18 20 23 32 34 37 29 23 17 10 8 12 14 18 27 31 25 22 21 23 19 20 17
6 4 6 8 13 10 7 12 5 10 8 3 9 12 14 13 12 15 13 15 17 19 21 26 30 33 37 41 31 24 16 9 9 17 24 23 22 23 21 21 18 19 18 17
10 4 11 5 19 16 18 8 10 6 14 14 19 14 16 18 15 17 17 16 16 16 20 26 29 31 34 38 40 33 27 18 12 17 21 24 23 22 23 26 19 22 24 25
9 5 6 9 14 9 13 15 16 20 21 19 14 9 12 12 13 17 15 13 13 15 17 24 26 27 29 30 31 34 33 27 23 18 16 18 20 22 21 24 23 25 25 23
6 9 2 3 4 5 7 19 16 21 20 20 17 16 14 15 16 15 14 12 14 16 19 23 22 23 25 24 25 26 25 29 31 31 26 19 14 16 16 17 20 23 24 25
5 5 4 3 4 12 9 16 14 7 14 20 16 13 8 14 13 15 15 14 15 18 15 16 17 18 19 20 21 22 23 23 27 31 31 27 24 21 18 14 11 14 19 23
7 7 3 2 4 0 7 20 24 14 6 17 16 13 9 3 1 4 13 14 14 15 15 15 15 15 16 19 18 20 22 23 25 26 25 22 22 21 23 23 20 14 17 16
8 5 7 5 4 5 15 23 20 4 5 14 16 16 19 7 7 5 9 12 14 16 15 14 16 18 18 17 17 17 18 23 20 19 18 17 16 19 17 15 14 12 13 13
8 6 5 6 6 4 29 8 7 3 9 11 13 13 14 12 10 10 12 13 18 16 15 16 17 19 19 18 17 20 20 18 18 16 16 15 16 14 14 12 10 7 11 13
4 5 3 5 3 4 12 11 9 8 8 11 11 10 9 10 11 13 16 18 16 14 14 15 16 16 18 19 19 22 22 17 17 18 17 17 15 15 13 11 11 12 12 15
4 10 3 5 6 8 9 10 10 9 9 9 9 10 9 10 10 13 14 13 12 13 14 13 15 17 17 16 13 15 17 18 17 18 21 21 19 16 14 14 15 14 16 13
6 6 4 5 9 11 9 8 8 9 9 9 9 10 10 9 10 10 10 11 11 11 13 14 14 14 15 15 14 11 12 13 12 13 16 19 20 22 19 18 19 18 16 12
7 3 2 2 3 4 5 4 7 10 10 10 9 9 11 11 10 9 11 10 10 12 12 12 13 13 13 14 16 15 10 9 10 13 13 14 14 14 16 18 20 19 15 13
Wind_Direction
258 231 225 230 227 242 237 240 240 233 293 271 260 258 234 229 234 249 236 203 224 224 212 223 227 225 232 224 226 213 209 222 240 232 213 215 214 223 225 218 210 227 236 242
251 251 241 233 235 233 246 245 256 269 278 284 247 272 288 240 229 232 222 217 227 222 227 229 231 222 229 235 221 216 215 217 234 244 229 220 224 226 231 225 227 231 236 238
244 249 244 228 241 236 228 241 242 251 254 351 295 284 263 254 240 229 201 210 218 223 228 233 237 242 234 233 236 228 216 215 228 246 232 219 222 229 229 224 227 223 230 232
245 248 235 229 229 236 235 228 214 243 78 255 283 276 280 229 250 260 253 203 208 225 153 287 305 294 290 282 270 241 218 217 222 237 235 215 219 215 226 220 228 221 229 234
244 242 265 258 216 231 241 227 207 229 193 247 274 260 269 261 226 226 238 144 86 77 46 3 335 312 295 288 275 271 239 219 220 232 236 225 206 225 228 222 218 218 232 236
242 240 226 239 229 222 208 70 124 225 216 241 232 227 247 222 243 138 102 104 111 85 56 8 339 321 308 290 277 271 264 224 224 233 226 219 206 209 216 209 204 224 229 228
247 261 276 251 234 188 148 170 190 190 213 231 219 227 235 93 202 112 101 100 71 58 45 20 359 334 308 292 273 277 275 222 221 228 223 210 210 204 208 211 210 226 225 214
222 209 248 267 205 172 188 193 189 194 209 222 215 238 157 67 114 121 86 60 51 40 33 17 360 327 298 292 277 265 260 221 221 222 210 201 211 205 212 220 218 227 225 216
278 237 219 224 173 175 190 205 193 325 256 126 171 77 170 150 179 84 74 58 31 17 21 5 346 327 320 303 283 256 235 234 216 222 219 201 211 207 207 220 215 228 223 212
321 163 147 155 171 197 194 199 182 240 252 186 189 155 120 92 66 76 65 51 35 19 5 349 342 334 335 332 334 251 229 218 215 226 229 198 211 206 203 215 212 220 219 206
215 239 168 122 105 186 210 208 161 259 248 227 161 62 80 82 68 72 62 53 38 20 359 352 346 347 340 352 20 102 190 206 214 230 218 197 200 203 196 215 213 207 206 202
225 72 246 206 181 222 174 218 189 283 174 100 342 103 341 82 66 71 66 59 49 36 22 11 2 4 352 5 28 50 130 198 221 221 204 199 189 202 194 216 196 197 204 205
335 72 181 194 211 355 231 209 227 143 23 267 194 99 67 81 72 65 66 54 42 33 22 16 18 22 12 6 22 36 85 154 201 210 209 205 192 189 187 200 194 192 202 203
5 349 307 281 329 135 308 325 298 128 131 287 70 136 78 64 68 69 61 54 47 36 28 23 28 27 29 17 20 28 41 135 175 203 211 208 208 194 195 191 195 196 198 198
40 309 318 334 284 167 160 173 152 81 45 52 56 99 78 73 70 68 61 50 42 35 29 30 31 32 37 33 23 26 41 77 146 165 185 188 193 196 192 191 197 201 203 202
320 339 20 320 107 120 86 59 94 86 42 66 72 81 88 90 79 60 48 43 36 32 25 31 36 36 35 44 34 28 32 40 85 115 143 156 173 183 191 193 187 195 187 190
329 5 355 52 103 74 51 35 70 62 48 45 46 46 97 81 60 45 46 39 30 27 22 24 29 34 38 36 46 36 33 42 52 74 97 118 141 157 176 193 201 195 196 197
357 328 222 146 350 59 74 59 68 65 40 33 42 45 64 87 81 61 47 37 29 24 22 13 14 25 32 39 38 48 41 38 49 57 56 63 91 123 138 164 177 182 195 204
35 330 338 334 126 134 42 24 0 39 42 14 19 30 116 137 106 52 32 34 36 33 24 23 13 17 24 34 38 39 48 49 47 54 54 55 58 61 75 80 111 136 157 174
39 350 267 310 135 211 24 335 332 322 63 8 20 18 16 181 0 43 13 31 37 38 27 28 28 25 31 24 27 38 41 48 49 51 56 54 58 62 64 67 67 71 91 97
8 5 10 359 63 85 348 328 311 337 14 9 32 38 44 67 63 48 24 34 46 43 25 29 31 32 33 33 29 42 41 42 44 54 59 63 61 62 67 78 81 73 76 81
39 335 21 355 26 52 355 19 53 338 29 34 41 55 67 72 63 47 39 45 43 37 31 31 34 32 29 36 43 40 45 38 43 50 59 66 70 75 85 82 82 89 87 81
53 37 44 26 72 59 39 59 48 54 56 45 49 51 69 64 52 52 51 50 45 37 36 34 36 37 32 33 40 47 29 38 43 43 49 53 60 81 85 93 115 100 89 81
81 36 80 169 86 78 59 57 55 55 59 48 46 45 53 54 42 54 49 46 42 37 37 38 39 35 33 33 52 59 53 22 43 46 50 57 62 65 74 84 84 86 89 97
358 19 34 92 124 118 78 56 45 48 46 43 45 46 45 56 56 59 54 48 44 42 40 42 41 39 33 33 45 67 68 61 40 52 54 52 59 62 68 75 76 74 76 87
12 9 10 84 58 85 99 63 51 51 44 39 41 43 47 51 56 64 59 54 51 46 42 41 42 40 35 40 47 56 63 72 75 63 69 73 66 48 58 61 68 70 68 77